Wind_Speed
15 15 14 14 13 12 10 6 3 2 3 4 5 6 7 7 9 10 10 10 10 9 9 9 9 8 8 7 6 5 5 5 4 3 3 3 2 2 2 2 2 2 2
15 14 14 13 13 11 9 5 2 3 3 3 4 5 6 7 8 9 10 10 9 9 10 11 10 9 8 8 7 6 6 6 5 5 5 4 4 4 4 3 3 3 3
15 14 13 13 12 10 7 4 2 3 4 4 4 5 6 7 8 9 10 11 11 10 10 10 11 11 10 9 8 7 7 7 7 7 7 7 6 6 6 5 5 5 5
14 13 12 11 10 8 6 3 1 2 4 5 5 5 6 6 8 8 9 10 11 11 11 11 11 11 11 10 10 9 9 8 9 9 9 8 8 8 7 7 8 7 7
14 13 12 11 9 7 5 2 0 1 3 5 5 6 6 7 7 8 9 11 11 11 11 11 11 11 11 11 11 11 10 10 10 10 10 10 10 10 10 10 10 10 10
13 12 11 10 7 6 4 2 1 1 2 3 4 5 6 7 8 9 10 10 11 11 11 11 11 11 12 12 12 13 12 12 12 12 12 12 13 13 12 12 13 13 13
12 11 10 10 7 4 3 2 1 1 2 3 3 4 6 7 8 10 10 10 11 11 12 12 12 12 13 13 13 14 14 13 14 13 14 14 15 15 15 15 15 15 15
10 10 9 9 7 5 3 2 1 0 1 2 3 3 5 6 7 9 10 11 12 12 12 13 13 13 14 14 15 15 15 15 16 16 15 16 16 17 17 17 17 18 18
10 9 8 7 6 5 3 2 1 1 1 1 2 3 3 5 6 8 9 10 11 12 13 13 14 14 14 15 15 16 16 16 17 17 17 17 18 19 19 19 19 20 21
10 9 7 7 6 5 4 3 2 3 3 3 4 4 5 5 6 8 9 10 11 12 13 14 14 15 15 15 17 17 17 18 18 19 19 19 19 20 20 21 22 22 22
9 9 8 7 6 5 4 4 4 4 5 5 5 5 6 6 7 8 9 10 11 12 12 14 14 15 15 16 17 18 19 19 20 20 20 21 22 22 22 23 23 24 24
9 9 9 7 6 5 5 5 5 6 6 6 6 6 6 7 7 7 8 9 10 12 13 14 15 16 16 17 17 19 20 20 20 21 21 22 23 23 24 24 24 25 26
10 10 11 9 7 6 6 6 7 7 7 7 7 7 8 8 8 8 9 10 11 12 13 14 16 17 17 18 19 20 20 20 21 22 23 23 23 24 25 25 25 26 27
11 10 10 10 9 8 7 7 8 7 8 8 7 8 8 9 9 10 10 10 11 12 13 15 15 17 18 18 19 19 19 21 21 22 23 25 25 25 26 26 27 28 29
11 11 11 11 10 9 9 8 9 9 9 8 8 9 9 10 10 11 11 12 12 13 14 15 16 17 18 19 20 20 21 21 22 23 23 24 25 26 27 27 28 29 29
12 12 12 12 12 11 10 10 10 11 11 11 10 10 11 11 11 12 13 14 14 15 15 16 17 18 19 20 20 21 22 22 23 23 24 25 26 26 27 28 29 29 30
13 14 13 12 11 11 10 10 11 11 12 12 12 12 12 12 13 14 15 16 16 16 16 17 18 19 19 20 22 23 23 23 24 24 25 26 27 27 28 28 29 30 30
15 14 13 12 13 13 12 12 12 13 13 14 13 13 13 14 15 15 16 16 17 17 18 19 19 20 21 22 22 23 24 24 25 25 26 27 27 28 29 29 30 31 32
15 15 15 15 14 14 13 13 14 14 14 15 16 15 15 16 16 17 17 17 18 18 19 20 21 21 22 22 23 24 25 26 26 27 28 28 29 29 30 30 31 32 33
17 16 16 16 16 16 15 15 16 15 16 17 17 17 17 17 18 18 19 19 19 20 20 21 22 23 24 24 25 26 27 27 28 29 30 30 30 31 31 31 32 32 33
19 18 18 18 18 17 17 17 17 17 17 18 18 18 19 19 20 20 20 20 21 22 23 23 24 24 25 26 26 27 28 28 29 29 29 30 30 30 31 32 32 33 34
21 21 21 21 20 19 20 19 18 19 19 20 20 21 21 22 22 22 22 22 23 23 23 24 25 25 26 26 27 28 28 29 29 29 29 29 30 30 31 32 33 34 35
24 24 24 24 23 23 22 22 21 21 21 22 22 23 23 24 24 24 23 23 23 24 25 26 26 27 27 27 28 29 29 29 29 29 29 29 30 31 32 33 34 35 36
25 25 25 24 24 24 23 22 22 22 23 24 24 24 24 25 25 24 24 24 25 26 27 27 27 28 28 29 29 29 29 29 29 29 30 30 31 32 33 34 35 36 36
28 27 26 25 24 22 22 22 22 23 24 25 25 25 25 25 25 25 25 26 26 27 28 28 27 28 28 29 29 29 29 28 29 30 30 31 32 33 34 35 36 35 35
28 28 27 26 25 25 24 23 24 25 25 26 26 26 27 27 27 27 27 27 28 29 30 29 29 29 29 30 29 29 29 30 30 31 32 33 34 34 35 35 35 35 35
Wind_Direction
343 343 339 337 335 337 336 334 330 261 239 237 236 210 208 206 209 215 215 218 225 227 221 216 212 213 219 224 228 232 241 236 234 241 249 263 279 289 299 301 303 307 302
341 342 341 341 340 336 329 318 270 239 218 221 224 200 203 208 214 220 220 218 223 227 224 220 219 221 226 231 232 235 241 239 243 249 254 264 272 283 285 284 286 285 288
336 338 336 334 336 334 326 306 246 213 206 207 208 202 202 206 211 218 220 216 218 221 227 227 223 224 229 231 233 238 244 247 247 250 259 265 270 276 275 273 278 280 280
331 333 332 329 329 331 333 319 263 199 201 203 216 216 207 209 214 217 217 217 220 224 229 231 229 228 230 234 237 243 249 251 250 250 257 263 268 273 272 268 269 272 279
330 331 332 329 329 330 337 2 297 213 211 209 218 220 213 215 220 222 222 221 222 225 229 233 232 230 232 235 239 246 251 254 254 253 257 261 264 269 271 271 271 273 277
328 331 334 336 336 337 357 19 43 160 186 195 207 216 220 223 228 229 229 229 229 228 230 234 235 234 237 240 243 248 252 254 256 257 260 263 263 265 268 270 271 272 274
324 326 326 330 332 342 359 17 58 101 167 197 211 225 227 233 239 234 232 234 233 232 233 238 239 239 240 244 248 251 254 256 257 259 262 265 266 267 267 268 270 271 273
328 333 331 333 334 334 342 359 24 73 193 204 210 231 241 249 249 242 237 237 240 241 238 240 242 244 246 249 251 253 258 259 259 260 263 265 265 266 267 268 270 272 273
324 330 329 333 331 328 328 344 346 330 281 234 232 254 261 262 259 252 243 240 243 243 241 243 246 249 251 252 251 255 259 259 261 263 264 264 266 267 267 270 272 273 274
322 326 324 326 322 315 314 309 303 297 291 276 272 264 265 275 271 262 251 248 250 248 246 248 250 252 255 255 256 259 260 264 265 265 264 264 268 269 270 271 272 273 275
329 336 330 325 317 308 310 309 297 290 283 278 277 275 272 275 275 271 259 253 250 249 249 250 253 256 257 257 260 263 266 266 265 266 266 265 267 269 270 271 272 273 275
319 330 329 324 318 312 309 306 299 288 283 285 282 278 278 276 280 278 267 260 256 253 254 256 259 260 259 259 264 267 268 268 269 270 270 270 271 271 272 273 274 274 276
317 322 322 317 311 309 302 296 299 290 284 285 280 275 273 275 279 280 272 266 263 261 261 260 261 261 262 264 267 270 271 272 274 274 272 273 273 274 275 273 274 275 277
310 319 322 321 315 304 297 294 298 300 295 285 279 274 272 273 274 277 278 278 272 267 267 266 266 267 268 268 270 273 273 273 275 277 275 273 274 276 275 275 276 277 279
301 308 314 317 318 307 295 295 296 288 292 283 276 275 275 275 277 279 278 280 277 272 272 270 268 269 271 273 273 273 274 275 276 278 278 277 277 279 277 277 279 281 282
296 298 307 309 312 308 297 293 291 289 289 285 278 276 274 278 281 281 278 278 277 276 275 273 272 271 270 272 274 276 278 279 280 280 281 282 281 281 279 279 281 283 283
294 297 301 301 305 305 305 296 292 292 290 286 282 281 280 280 281 282 282 280 278 277 276 275 273 273 273 275 277 278 278 280 281 281 281 281 280 281 281 281 282 283 283
288 294 297 297 298 297 296 294 292 292 290 286 282 282 282 283 282 284 285 283 280 277 276 275 274 275 276 278 279 280 280 280 282 283 284 283 282 283 281 283 284 284 285
285 289 292 295 298 294 292 290 288 288 289 288 284 281 282 284 283 283 284 284 282 281 280 278 276 277 279 280 280 282 283 282 283 284 285 284 284 284 284 285 286 286 287
283 285 287 290 293 292 290 288 285 285 286 288 288 285 283 283 283 283 283 284 285 284 282 279 281 281 280 280 280 282 284 283 283 284 285 285 285 285 285 287 288 288 288
277 280 282 286 289 290 289 289 284 284 285 286 287 287 286 284 284 284 284 284 284 284 284 282 282 282 282 282 283 284 285 285 286 286 286 286 286 287 287 287 287 287 288
276 281 280 283 284 285 287 285 282 282 283 285 287 286 286 285 285 284 283 282 283 283 284 284 283 282 282 284 284 285 285 285 286 287 288 288 289 289 289 289 289 290 291
275 280 283 283 283 283 284 282 280 279 281 283 284 284 284 284 283 283 282 281 281 282 282 282 283 283 283 283 284 285 286 287 287 287 289 289 289 290 290 291 291 292 293
274 279 280 280 282 282 278 277 276 278 280 282 282 282 282 282 281 280 281 281 282 282 283 283 283 282 283 284 284 284 285 286 287 288 288 289 290 291 292 293 294 295 296
274 275 275 275 278 277 276 276 277 278 280 280 280 280 280 280 280 280 279 280 280 282 283 284 283 284 284 284 285 284 285 286 288 288 289 291 292 293 294 294 295 296 297
275 274 273 272 275 273 275 277 278 279 280 280 280 280 279 278 278 277 277 278 279 280 282 282 283 284 284 284 285 286 287 287 287 289 291 292 294 295 296 296 296 297 297
Height
5884 5882 5879 5877 5874 5871 5870 5868 5868 5870 5870 5871 5872 5873 5874 5876 5878 5880 5881 5883 5885 5886 5888 5889 5891 5892 5894 5895 5896 5897 5898 5899 5899 5900 5901 5901 5901 5901 5901 5901 5901 5901 5901
5883 5880 5878 5875 5873 5870 5869 5868 5868 5869 5869 5870 5871 5872 5874 5875 5877 5879 5880 5882 5884 5885 5887 5888 5890 5892 5893 5894 5895 5896 5897 5898 5899 5899 5900 5901 5901 5901 5901 5901 5901 5901 5900
5881 5879 5876 5874 5872 5869 5868 5867 5867 5868 5869 5870 5871 5872 5873 5875 5876 5878 5879 5881 5883 5884 5886 5887 5888 5890 5892 5893 5894 5895 5896 5897 5898 5898 5899 5900 5900 5900 5900 5900 5900 5900 5900
5880 5878 5875 5873 5870 5868 5867 5867 5867 5867 5868 5869 5871 5872 5873 5874 5875 5877 5878 5880 5881 5883 5884 5886 5887 5889 5890 5892 5893 5894 5895 5895 5896 5897 5898 5898 5898 5898 5899 5899 5898 5898 5898
5879 5877 5874 5871 5869 5868 5866 5866 5866 5867 5867 5869 5870 5871 5872 5873 5874 5875 5877 5878 5879 5881 5883 5884 5885 5887 5889 5890 5891 5892 5893 5894 5894 5895 5895 5896 5896 5896 5897 5897 5897 5896 5896
5878 5876 5874 5871 5869 5867 5866 5866 5866 5866 5867 5868 5869 5870 5871 5872 5873 5874 5875 5876 5878 5879 5881 5882 5883 5885 5887 5888 5889 5890 5891 5892 5892 5893 5893 5894 5894 5894 5894 5894 5894 5894 5894
5877 5875 5873 5871 5868 5867 5866 5866 5866 5866 5867 5867 5868 5869 5870 5871 5872 5872 5874 5875 5876 5878 5879 5880 5881 5883 5884 5886 5887 5888 5888 5889 5890 5890 5890 5891 5891 5891 5891 5891 5891 5890 5890
5875 5874 5872 5870 5868 5867 5866 5866 5866 5866 5867 5867 5867 5868 5869 5870 5870 5871 5872 5874 5875 5876 5877 5878 5879 5880 5882 5883 5884 5885 5885 5886 5887 5887 5887 5887 5887 5888 5887 5887 5887 5887 5886
5874 5872 5871 5870 5868 5867 5866 5866 5866 5866 5866 5867 5867 5868 5868 5868 5869 5870 5871 5872 5873 5874 5875 5876 5877 5878 5879 5880 5881 5882 5882 5883 5883 5883 5883 5883 5883 5883 5883 5883 5883 5883 5882
5873 5871 5870 5869 5868 5867 5866 5865 5865 5866 5866 5866 5867 5867 5867 5867 5867 5868 5869 5870 5870 5871 5872 5873 5874 5875 5876 5876 5877 5878 5878 5879 5879 5879 5879 5879 5879 5879 5879 5878 5878 5878 5877
5872 5870 5869 5868 5867 5866 5866 5865 5865 5865 5865 5865 5865 5865 5866 5866 5866 5866 5867 5867 5868 5869 5869 5870 5871 5872 5872 5873 5874 5874 5874 5874 5874 5874 5874 5874 5874 5874 5873 5873 5872 5872 5872
5871 5869 5868 5867 5866 5866 5865 5865 5864 5864 5864 5864 5863 5863 5864 5864 5864 5864 5865 5865 5865 5866 5867 5867 5868 5868 5869 5869 5870 5870 5870 5870 5869 5869 5869 5869 5868 5868 5868 5867 5867 5866 5865
5869 5868 5867 5866 5865 5865 5864 5864 5863 5863 5862 5861 5861 5861 5862 5862 5862 5862 5862 5863 5863 5863 5863 5864 5865 5865 5865 5866 5866 5866 5865 5865 5864 5864 5864 5863 5863 5863 5862 5861 5860 5860 5859
5867 5866 5865 5864 5864 5863 5863 5862 5862 5861 5860 5860 5859 5859 5859 5859 5860 5860 5860 5860 5860 5860 5860 5861 5861 5861 5861 5861 5861 5861 5860 5860 5859 5859 5858 5857 5857 5856 5855 5855 5854 5852 5851
5866 5865 5864 5863 5862 5861 5861 5860 5860 5860 5859 5858 5858 5857 5857 5857 5857 5858 5858 5858 5857 5857 5857 5857 5857 5857 5857 5857 5856 5856 5855 5855 5854 5853 5852 5851 5850 5849 5849 5848 5846 5845 5844
5863 5863 5862 5861 5860 5859 5859 5858 5858 5857 5857 5856 5855 5855 5855 5855 5855 5855 5855 5854 5854 5853 5853 5853 5852 5852 5852 5852 5851 5851 5850 5849 5848 5848 5846 5845 5844 5843 5842 5840 5839 5838 5836
5861 5860 5859 5858 5857 5857 5856 5856 5856 5855 5854 5854 5853 5852 5852 5852 5852 5852 5851 5851 5850 5849 5849 5848 5848 5848 5847 5847 5846 5845 5844 5844 5843 5841 5840 5839 5837 5836 5835 5833 5831 5830 5828
5857 5856 5856 5855 5854 5854 5854 5853 5853 5852 5851 5851 5850 5850 5849 5849 5848 5848 5847 5846 5846 5845 5844 5844 5843 5843 5842 5841 5840 5839 5838 5837 5836 5835 5834 5832 5831 5829 5827 5826 5824 5822 5820
5853 5853 5852 5852 5851 5850 5850 5850 5849 5849 5848 5847 5847 5846 5846 5845 5844 5843 5843 5842 5841 5841 5840 5839 5838 5838 5837 5836 5835 5833 5832 5831 5829 5828 5826 5825 5823 5821 5820 5818 5816 5814 5812
5849 5848 5848 5847 5847 5847 5846 5846 5845 5845 5844 5844 5843 5842 5841 5841 5840 5839 5838 5837 5837 5836 5835 5834 5833 5832 5831 5830 5828 5827 5825 5824 5822 5821 5819 5818 5816 5814 5812 5810 5808 5806 5803
5843 5843 5843 5843 5843 5842 5841 5840 5840 5840 5839 5839 5838 5838 5837 5836 5835 5834 5833 5832 5831 5830 5829 5828 5827 5826 5824 5823 5822 5820 5819 5817 5815 5813 5812 5810 5808 5806 5804 5802 5800 5797 5795
5837 5837 5837 5837 5837 5836 5835 5834 5834 5834 5834 5833 5833 5832 5831 5830 5829 5828 5827 5826 5825 5824 5823 5822 5820 5819 5818 5816 5815 5813 5811 5810 5808 5806 5804 5802 5800 5798 5796 5794 5791 5788 5786
5831 5831 5831 5830 5830 5830 5829 5828 5828 5828 5828 5828 5827 5826 5825 5824 5823 5822 5821 5820 5819 5818 5816 5815 5814 5812 5810 5809 5807 5805 5804 5802 5800 5798 5796 5794 5792 5790 5787 5785 5782 5779 5776
5824 5824 5824 5824 5823 5822 5822 5822 5822 5822 5822 5821 5821 5820 5819 5817 5816 5815 5814 5813 5812 5811 5809 5808 5806 5804 5803 5801 5799 5798 5796 5794 5792 5790 5788 5786 5784 5781 5779 5776 5773 5770 5766
5817 5817 5817 5817 5817 5816 5816 5815 5815 5815 5815 5814 5814 5813 5812 5811 5809 5808 5807 5806 5805 5804 5802 5801 5799 5797 5795 5794 5792 5790 5788 5786 5785 5782 5780 5778 5775 5773 5770 5767 5764 5760 5757
5809 5809 5809 5810 5810 5809 5809 5808 5808 5808 5807 5806 5806 5805 5804 5803 5802 5801 5800 5798 5797 5796 5795 5793 5792 5790 5788 5786 5784 5782 5780 5778 5777 5774 5772 5769 5767 5764 5761 5758 5754 5751 5748